Location: *
(57.8420°S, 159.8600°W)
Time: 13:08:20
(UTC+00:00)

Cosmos 1633 - Pass Details

Date: 18 May 2021
Orbit: 460 x 478 km, 82.5° (Epoch: 22 June)

Event Time Altitude Azimuth Distance (km) Brightness Sun altitude
Rises 05:15:01 0° 343° (NNW) 2,520 6.5 -21.7°
Reaches altitude 10° 05:17:06 10° 340° (NNW) 1,653 5.5 -21.9°
Maximum altitude 05:20:42 70° 255° (WSW) 521 2.8 -22.4°
Enters shadow 05:21:09 61° 207° (SSW) 558 2.8 -22.5°
